カタログに戻る

COSMOS 2213

運用中軍事PO
NORAD 22184·PAYLOAD·🇷🇺 Russia

打ち上げ Oct 20, 1992 から Plesetsk Cosmodrome

Loading…

次のパス (今後24時間)

TLE

最新Source: Space-Track

元期: Sep 14, 2026, 01:56 UTC

1 22184U 92068C   26257.08082277  .00000010  00000-0 -52735-5 0  9997
2 22184  82.5969 290.4332 0001834 299.7008  88.4193 12.62614123562174

AllMySatでCOSMOS 2213をリアルタイム追跡

Download on the App Store